Find Kineis-1B

NORAD ID: 60079 Int'l Des: 2024-114 Owner: KINEIS Country: F operational
LEOCIRCULARRETROGRADESSO

Current View

Loading 3D Globe...

About Kineis-1B

Description loading...

Upcoming Passes

Passes for default location (London). Set your location on the main map for personalized predictions.

Altitude History

Loading altitude history...

Two-Line Element Set

1 60079U 24114A 26150.14307860 .00001069 00000-0 14621-3 0 9990
2 60079 97.9831 174.4158 0003466 131.9716 228.1792 14.80590990104739
Epoch: May 30, 2026 • Age: 9 hours

Current Status

Altitude 637.9 km
Velocity 7.55 km/s
Sub-Earth Point 73.69°N, 44.97°W
Launch Date Jun 20, 2024
Age 1.9 years
Type other

Technical Details

Classification Payload
Mass 28.00 kg
Dry Mass 28.00 kg
Total Mass 28.00 kg
Length 0.40 m
Diameter 0.20 m
Span 1.60 m
Shape Box+ 2 pan + ant
Manufacturer KINEIS
Bus Type Cubesat 16U
Phase Status In Orbit
Owner/State KINEIS/F

Most Searched